Simultaneous Nadir Overpasses (SNOs) Predictions

Prediction of SNOs between METOP-A and TERRA Satellite Orbit:

Table of predicted SNOs for the next 14.0 days since TLE Epoch: 11/24/2012
Index Date (METOP-A) Time (METOP-A) METOP-A Lat,Lon Date (TERRA) Time (TERRA) TERRA Lat,Lon Distance(km) Time Diff (sec)
1 11/25/2012 03:46:51 -81.33, -8.94 11/25/2012 03:47:27 -81.34, -8.90 0.68 36
2 11/25/2012 04:37:30 81.34, 159.04 11/25/2012 04:36:53 81.34, 158.88 2.72 37
3 11/27/2012 23:21:14 -81.34, 57.76 11/27/2012 23:21:43 -81.34, 57.68 1.53 29
4 11/28/2012 00:11:54 81.34,-134.66 11/28/2012 00:11:09 81.35,-134.57 1.78 45
5 11/30/2012 18:55:38 -81.34, 123.98 11/30/2012 18:55:58 -81.34, 124.08 1.83 20
6 11/30/2012 19:46:17 81.34, -68.05 11/30/2012 19:45:24 81.35, -68.19 2.32 53
7 12/03/2012 14:30:03
